Regional Weather Roundup
Issued by NWS

Home | Current Version | Previous Version | Graphics & Text | Print | Product List | Glossary On
Versions: 1 2 3 4 5 6 7 8 9 10 11 12 13 14 15 16 17 18 19 20 21 22 23 24 25 26
000
ASUS45 KSLC 230110
RWRUT

UTAH REGIONAL WEATHER ROUNDUP
NATIONAL WEATHER SERVICE SALT LAKE CITY UT
700 PM MDT THU JUN 22 2017

UTZ001>011-023>025-230200-

NORTHERN UTAH

CITY           SKY/WX    TMP DP  RH WIND       PRES   REMARKS
BRIGHAM CITY   SUNNY     84  22  10 NW8G16    30.01S
HILL AFB       SUNNY     81  32  16 NW5       30.04S
LOGAN          SUNNY     81  42  25 N15       30.01S
OGDEN          SUNNY     82  34  17 W8        30.01S
SALT LAKE CITY SUNNY     85  31  14 N13       30.00R
TOOELE VALLEY  SUNNY     82  36  18 N3        30.02S
WENDOVER         N/A     90  28  11 E10       29.98F
HEBER CITY     MOSUNNY   82  27  13 W8        30.04R
WEST JORDAN    SUNNY     82  45  27 NW13      30.04S

$$

UTZ011>015-024>027-230200-

CENTRAL/NORTHEAST UTAH

CITY           SKY/WX    TMP DP  RH WIND       PRES   REMARKS
PROVO AIRPORT  SUNNY     84  33  16 N17       30.00S
MOAB/CANYONLAN SUNNY     99  27   8 NW22G32   29.81R HX  92
DELTA          SUNNY     88  21   8 N17       29.99S
PRICE          SUNNY     88  33  14 W18G24    30.00F
ROOSEVELT      SUNNY     88  28  11 W26G36    29.93S
VERNAL         SUNNY     91  27  10 W18G25    29.88S

$$

UTZ013>016-019>022-027-230200-

SOUTHERN UTAH

CITY           SKY/WX    TMP DP  RH WIND       PRES   REMARKS
BRYCE CANYON   MOSUNNY   80  29  15 NW13      30.19F
CEDAR CITY     SUNNY     92  32  12 N10       30.01S
MILFORD        SUNNY     93  31  11 N15       29.97F
ST GEORGE      PTCLDY   107  22   5 W17       29.73S HX  99
HANKSVILLE     SUNNY     99  32   9 NW21G30   29.87R HX  93
BLANDING       MOSUNNY   91  27  10 NW24G30   30.01R

$$

REGIONAL REPORTS     COLORADO/ARIZONA

CITY           SKY/WX    TMP DP  RH WIND       PRES   REMARKS
CRAIG, CO      CLOUDY    86  23  10 NW15G26   29.97R
GRAND JUNCTION SUNNY     93  33  12 SW7       29.85F
RIFLE, CO      CLOUDY    87  41  19 N6        29.93F
MONTROSE, CO   SUNNY     88  33  14 N17       29.96R
CORTEZ, CO     SUNNY     93  14   5 W14       29.94S
COLORADO CITY    N/A     99  23   6 SW8G17    29.96S HX  92
PAGE, AZ       SUNNY    103  11   3 W12G24    29.83S HX  95
GRAND CANYON   SUNNY     90  14   6 NW12G24   30.11S
KINGMAN, AZ    SUNNY    103  37  10 SW17G29   29.85F HX  97
FLAGSTAFF, AZ  MOSUNNY   87  24  10 W13G21    30.14S

$$

REGIONAL REPORTS    NEVADA/IDAHO/WYOMING

CITY           SKY/WX    TMP DP  RH WIND       PRES   REMARKS
LAS VEGAS, NV  MOSUNNY  112   0   2 W16G25    29.68S HX 102
ELY, NY        SUNNY     88  32  13 NW16G28   30.10S
ELKO, NV       SUNNY     85  22  10 NW13      30.08S
POCATELLO, ID  MOSUNNY   77  31  18 SW18      30.06S
BURLEY, ID     SUNNY     75  33  21 W13G26    30.04S
FORT BRIDGER,    N/A     76  24  14 W17G28    30.17R
EVANSTON, WY   SUNNY     72  34  24 W15       30.17R
ROCK SPRINGS,  SUNNY     76  19  11 W24G33    30.07R
KEMMERER, WY     N/A     70  30  23 NW20      30.18R

$$




USA.gov is the U.S. government's official web portal to all federal, state and local government web resources and services.